sat.trackr.live / text

‹ back to catalog

STARLINK-4292

NORAD 53175 · 2022-083AV

PAYLOAD ACTIVE UNKNOWN

§ Identity

Operator
Country
US
Launch date
2022-07-17
Launch site
AFETR
Launch vehicle
Mass (kg)
RCS (m²)

Purposes: comms

External: N2YO · Heavens-Above · Gunter

§ Orbital elements

Epoch: 2026-09-20T00:08:01.010400Z

Period
93.85 min
Inclination
53.1610°
Eccentricity
0.0000917
Mean motion
15.34389341 rev/d
Perigee alt
462.1 km
Apogee alt
463.4 km
Semi-major
6,840.9 km
B*
5.5090e-5
RAAN
11.6897°
Arg perigee
95.0979°
Mean anomaly
265.0128°
Rev number
23,068

§ Raw data

STARLINK-42921 53175U 22083AV  26263.00556725  .00001485  00000+0  55090-4 0  99952 53175  53.1610  11.6897 0000917  95.0979 265.0128 15.34389341230681

JSON: /api/v1/satellites/53175 · /tle

For live sub-satellite position, see the globe view (requires WebGL).

§ Visibility from observer

Set your observer location to see the next 7 days of passes ≥ 10°. The values pass through the URL so the page stays shareable.

No JS? Fill the form by hand. The geolocation button needs JavaScript.